Regional Weather Roundup
Issued by NWS

Home | Current Version | Previous Version | Graphics & Text | Print | Product List | Glossary On
Versions: 1 2 3 4 5 6 7 8 9 10 11 12 13 14 15 16 17 18 19 20 21 22 23 24 25 26 27 28 29 30 31 32 33 34 35 36 37 38 39 40 41 42 43 44 45 46 47 48 49 50
000
ASUS43 KMPX 210010
RWRMN
WEATHER ROUNDUP FOR MINNESOTA
NATIONAL WEATHER SERVICE TWIN CITIES/CHANHASSEN MN
700 PM CDT WED SEP 20 2017


NOTE: "FAIR" INDICATES FEW OR NO CLOUDS BELOW 12,000 FEET WITH NO
SIGNIFICANT WEATHER AND/OR OBSTRUCTIONS TO VISIBILITY. N/A MEANS
CURRENT SKY AND/OR WEATHER CONDITIONS ARE NOT AVAILABLE.

MNZ060>063-068>070-210100-
   Twin Cities Metro

CITY           SKY/WX    TMP DP  RH WIND       PRES   REMARKS
TWIN CITIES    CLEAR     70  49  47 W6        29.86R
6HR MIN TEMP:  70; 6HR MAX TEMP:  75;

ST PAUL        CLEAR     69  51  52 W6        29.86R
CRYSTAL        CLEAR     68  47  46 NW5       29.85R
BLAINE         CLEAR     70  48  46 W3        29.86R
LAKEVILLE      CLEAR     64  54  68 CALM      29.86S
EDEN PRAIRIE   CLEAR     70  49  47 W3        29.85R
6HR MIN TEMP:  70; 6HR MAX TEMP:  74;

SOUTH ST PAUL  CLEAR     70  50  49 W5        29.85S
LAKE ELMO      FAIR      68  52  56 CALM      29.87R
$$
MNZ001>005-007-008-013>017-022>024-027-028-210100-
   Northwest Minnesota

CITY           SKY/WX    TMP DP  RH WIND       PRES   REMARKS
BEMIDJI        CLEAR     62  42  47 S5        29.84R
HALLOCK        CLOUDY    68  37  32 SW12      29.72R
ROSEAU         CLEAR     64  45  48 S9        29.75R
WARROAD        CLEAR     64  46  52 S6        29.77R
THIEF RVR FALL PTCLDY    65  42  43 S9        29.79R
CROOKSTON      CLEAR     66  43  42 SW10      29.77R
FOSSTON        CLEAR     64  41  42 S8        29.81S
DETROIT LAKES  CLEAR     63  45  51 S3        29.85R
MOORHEAD       CLEAR     68  41  37 S5        29.82R
PARK RAPIDS    CLEAR     63  46  54 S3        29.85R
MAHNOMEN       FAIR      63  44  50 S8        29.82R
$$
MNZ006-009>011-018-025>026-210100-
   North Central Minnesota

CITY           SKY/WX    TMP DP  RH WIND       PRES   REMARKS
BAUDETTE       CLEAR     62  43  49 S6        29.78R
FLAG ISLAND    CLEAR     63  48  59 S5        29.75R
INTL FALLS     CLEAR     58  45  62 SW3       29.82R
6HR MIN TEMP:  58; 6HR MAX TEMP:  67;

WASKISH        CLEAR     61  46  59 S3        29.82R
BIG FORK       CLEAR     55  48  76 CALM      29.85R
LONGVILLE      CLEAR     57  52  82 CALM      29.85S
GRAND RAPIDS   CLEAR     57  51  80 CALM      29.87R
CRANE LAKE     CLEAR     57  46  67 CALM      29.85R
ORR            CLEAR     55  46  71 CALM      29.82R
COOK           CLEAR     61  48  63 CALM      29.86R
WALKER         FAIR      62  47  58 SW3       29.85S
$$
MNZ012-019>021-037-210100-
   Northeast Minnesota

CITY           SKY/WX    TMP DP  RH WIND       PRES   REMARKS
DULUTH         PTCLDY    61  47  59 W8        29.85R
6HR MIN TEMP:  61; 6HR MAX TEMP:  71;

ELY            CLEAR     59  52  77 CALM      29.84R
HIBBING        CLEAR     55  50  83 CALM      29.85R
EVELETH        CLEAR     60  38  44 CALM      29.87R
DULUTH HARBOR  CLEAR     70  52  52 SW6       29.84R
TWO HARBORS    CLEAR     63  57  82 CALM      29.83R
SILVER BAY     CLEAR     64  52  63 CALM      29.82R
GRAND MARAIS     N/A     60  59  96 CALM      29.80R
G MARAIS ARPRT CLEAR     61  52  72 CALM      29.85R
$$
MNZ029>031-032-039>041-046>048-054>057-064-210100-
   West Central Minnesota

CITY           SKY/WX    TMP DP  RH WIND       PRES   REMARKS
FERGUS FALLS   CLEAR     64  45  48 S5        29.83R
WHEATON        CLEAR     66  41  39 S6        29.85R
MORRIS         CLEAR     66  50  55 S5        29.85R
ALEXANDRIA     CLEAR     66  41  40 SW3       29.87S
ELBOW LAKE     FAIR      60  48  62 S6        29.85S
WADENA         CLEAR     63  46  55 S5        29.85S
GLENWOOD       CLEAR     64  48  55 CALM      29.87S
APPLETON       CLEAR     68  43  40 CALM      29.85S
BENSON         CLEAR     64  46  52 CALM      29.88R
ORTONVILLE     CLEAR     66  45  45 N3        29.85R
MADISON        CLEAR     72  52  49 CALM      29.86R
WILLMAR        FAIR      66  54  63 CALM      29.89R
$$
MNZ033>034-036-042>043-049>051-058-059-210100-
   Central Minnesota

CITY           SKY/WX    TMP DP  RH WIND       PRES   REMARKS
ST CLOUD       CLEAR     64  55  72 CALM      29.87R
6HR MIN TEMP:  64; 6HR MAX TEMP:  71;

SAUK CENTRE    FAIR      64  49  57 CALM      29.88R
PAYNESVILLE    CLEAR     65  49  56 CALM      29.88R
AITKIN         CLEAR     57  48  72 CALM      29.86R
PINE RIVER     CLEAR     57  46  67 CALM      29.89R
BRAINERD       CLEAR     62  45  53 SW5       29.87R
LONG PRAIRIE   FAIR      63  46  55 CALM      29.88R
LITTLE FALLS   CLEAR     61  43  51 CALM      29.87S
LITCHFIELD     CLEAR     66  52  59 CALM      29.88R
BUFFALO        CLEAR     67  46  45 W3        29.87S
MAPLE LAKE     CLEAR     66  51  58 CALM      29.88R
HUTCHINSON     CLEAR     65  56  73 CALM      29.88S
$$
MNZ037-044-045-052-053-210100-
   East Central Minnesota

CITY           SKY/WX    TMP DP  RH WIND       PRES   REMARKS
PRINCETON      CLEAR     66  50  55 CALM      29.87S
MORA           CLEAR     64  46  52 NW3       29.89R
CAMBRIDGE      CLEAR     66  52  59 CALM      29.87R
RUSH CITY      CLEAR     64  52  66 CALM      29.87R
MOOSE LAKE     CLEAR     61  50  67 SW6       29.85R
HINCKLEY       FAIR      64  54  68 W5        29.87R
CLOQUET        CLEAR     61  46  59 W5        29.86R
MCGREGOR       CLEAR     63  46  55 CALM      29.87R
$$
MNZ071>073-080-081-089-090-097-098-210100-
   Southwest Minnesota

CITY           SKY/WX    TMP DP  RH WIND       PRES   REMARKS
MONTEVIDEO     CLEAR     70  46  43 CALM      29.86R
GRANITE FALLS  CLEAR     69  53  56 CALM      29.88R
CANBY          CLEAR     69  44  39 CALM      29.87R
MARSHALL       CLEAR     68  50  52 S6        29.87R
REDWOOD FALLS  CLEAR     68  48  48 E3        29.86R
OLIVIA         CLEAR     70  50  49 CALM      29.87R
PIPESTONE      CLEAR     66  52  59 CALM      29.88S
WINDOM         CLEAR     70  48  46 CALM      29.88R
WORTHINGTON    CLEAR     69  46  43 CALM      29.89R
JACKSON        CLEAR     70  50  49 CALM      29.89R
TRACY          CLEAR     67  51  57 CALM      29.88R
SLAYTON        CLEAR     70  47  44 CALM      29.88S
$$
MNZ065>067-074>077-082>085-091>093-210100-
   South Central Minnesota

CITY           SKY/WX    TMP DP  RH WIND       PRES   REMARKS
MANKATO        CLEAR     69  50  50 CALM      29.88R
NEW ULM        CLEAR     68  50  52 CALM      29.87S
ST JAMES       CLEAR     66  52  59 E3        29.88S
FAIRMONT       CLEAR     70  50  49 NE3       29.88S
GLENCOE        CLEAR     67  54  63 CALM      29.86S
FARIBAULT      CLEAR     66  55  68 CALM      29.87S
OWATONNA       CLEAR     68  55  64 CALM      29.87S
WASECA         CLEAR     64  52  63 NW3       29.88F
ALBERT LEA     CLEAR     72  55  56 CALM      29.88R
$$
MNZ078>079-086>088-094>096-210100-
   Southeast Minnesota

CITY           SKY/WX    TMP DP  RH WIND       PRES   REMARKS
ROCHESTER      CLEAR     68  57  68 NW6       29.88R
6HR MIN TEMP:  68; 6HR MAX TEMP:  78;

RED WING       CLEAR     70  54  56 N3        29.84S
STANTON        CLEAR     70  55  58 CALM      29.85S
DODGE CENTER   CLEAR     68  52  56 NW3       29.88R
WINONA         CLEAR     72  59  64 CALM      29.85S
AUSTIN         CLEAR     70  54  56 N5        29.87S
PRESTON        CLEAR     67  58  72 N6        29.87S
$$
ABBREVIATIONS USED IN REMARKS
   TC - TEMPERATURES IN CELSIUS
  WCI - WIND CHILL INDEX
   HX - HEAT INDEX
  VSB - VISIBILITY
$$



USA.gov is the U.S. government's official web portal to all federal, state and local government web resources and services.